[[{"header":{"parameterUnit":"m.s-1","parameterCategory":1,"la1":30.2991,"la2":30.254,"lo1":-89.0895,"lo2":-89.0444,"dy":0.0017,"dx":0.0017,"nx":28,"ny":28,"refTime":"2024-02-05T03:00:00:Z","depth":0,"parameterNumber":2,"parameterNumberName":"U-component_of_WINDS"},"data":[0,0,0,0,0,0,0,0,0,0,0,0,0,0,0,0,0,0,0,0,0,0,0,0,0,0,0,0,0,0,0,0,0,0,0,0,0,0,0,0,0,0,0,0,0,0,0,0,0,0,0,0,0,0,0,0,0,0,0.7138,0.7138,0,0.7113,0.7113,0.7113,0.7083,0.7083,0.7082,0.7082,0.7055,0.7054,0.7054,0,0,0,0,0,0,0,0,0,0,0,0,0,0.7158,0.7158,0.7138,0.7138,0.7137,0.7113,0.7113,0.7113,0.7083,0.7083,0.7082,0.7082,0.7055,0.7054,0.7054,0,0,0,0,0,0,0,0,0,0,0,0,0,0.7143,0.7158,0.7138,0.712,0.7118,0.7113,0.7113,0.7112,0.7083,0.7083,0.7082,0.7081,0.7055,0.7054,0.7054,0.7065,0,0,0.7053,0.7052,0,0,0,0,0,0,0,0,0.7144,0.7142,0.7123,0.7121,0.7119,0.7101,0.711,0.7096,0.7084,0.7096,0.7082,0.7081,0.707,0.7069,0.7065,0.7063,0.7062,0.7053,0.7052,0.7052,0.7052,0,0,0,0,0,0,0,0.7145,0.7143,0.7128,0.7123,0.712,0.7113,0.711,0.7107,0.7087,0.7095,0.7093,0.7091,0.7069,0.7066,0.7065,0.7062,0.7053,0.7052,0.7052,0.7052,0.7067,0.7068,0,0,0,0,0,0,0.7149,0.7144,0.7129,0.7127,0.713,0.7113,0.7109,0.7107,0.7087,0.7084,0.7091,0.7089,0.7067,0.7065,0.7063,0.7074,0.7052,0.7052,0.7051,0.7067,0.7067,0.7068,0,0,0,0,0,0,0.715,0.7148,0.713,0.7135,0.7132,0.7113,0.7111,0.7107,0.7104,0.7084,0.7081,0.7092,0.7066,0.7064,0.7065,0.7073,0.7051,0.7051,0.7066,0.7067,0.7068,0.7097,0,0,0,0,0,0,0.715,0.7148,0.7152,0.7136,0.7132,0.7132,0.7111,0.7107,0.7103,0.7101,0.7084,0.708,0.7066,0.7066,0.7064,0.7072,0.7051,0.7065,0.7066,0.7067,0.7095,0.7099,0.7102,0,0,0,0,0,0.7151,0.7161,0.7153,0.7151,0.7137,0.7132,0.713,0.7114,0.7104,0.7108,0.7096,0.7081,0.7073,0.7066,0.7064,0.7072,0.7064,0.7066,0.7067,0.7093,0.7098,0.7102,0,0,0,0,0,0,0.7178,0.7158,0.7149,0.7154,0.7145,0.7128,0.7132,0.7119,0.7113,0.711,0.709,0.7086,0.7089,0.7081,0.7074,0.7081,0.7066,0.7068,0.7087,0.7091,0.7094,0.7096,0.705,0,0,0,0,0,0.7185,0.7184,0.7166,0.7172,0.7168,0.7151,0.7148,0.7137,0.7127,0.7123,0.711,0.7101,0.7096,0.7093,0.7087,0.7094,0.709,0.7099,0.7102,0.7105,0.7106,0.7109,0.7113,0.7073,0.7073,0.7073,0,0,0.7199,0.7188,0.7188,0.7177,0.7169,0.7168,0.7148,0.7147,0.7146,0.7122,0.7122,0.7113,0.7101,0.7104,0.7105,0.7097,0.7116,0.7107,0.7109,0.7109,0.7111,0.7115,0.7118,0.7074,0.7074,0.7074,0,0,0.7223,0.7214,0.7218,0.7211,0.7199,0.7188,0.7189,0.7173,0.7167,0.7167,0.7149,0.7147,0.7139,0.7131,0.7126,0.7149,0.7135,0.7147,0.7165,0.7168,0.7171,0.7174,0.7181,0.7184,0.7149,0.7149,0.7149,0,0.7241,0.7238,0.7222,0.7222,0.7218,0.7198,0.7202,0.7195,0.7182,0.718,0.7171,0.7162,0.7152,0.7153,0.7159,0.7156,0.7156,0.7149,0.7172,0.7175,0.7177,0.7184,0.7187,0.715,0.715,0.715,0.715,0,0.7261,0.726,0.7264,0.7253,0.725,0.7252,0.7236,0.7234,0.7223,0.7212,0.7213,0.7201,0.7192,0.7192,0.7181,0.7192,0.7188,0.7176,0.716,0.7182,0.7189,0.7191,0.7153,0.7152,0.7152,0.7151,0,0,0.73,0.7281,0.7283,0.7278,0.7264,0.7262,0.7264,0.7257,0.7256,0.7248,0.7248,0.7243,0.7232,0.7226,0.7214,0.7217,0.7235,0.7205,0.7204,0.7211,0.7247,0.7255,0.7259,0.7227,0.7227,0.7227,0.7248,0,0.7321,0.7323,0.7308,0.7314,0.7312,0.7294,0.7295,0.7286,0.7277,0.7274,0.7263,0.726,0.7246,0.7242,0.7245,0.7233,0.7242,0.7231,0.7226,0.7226,0.7229,0.7262,0.7271,0.7291,0.725,0.7251,0.7251,0,0.7345,0.734,0.7345,0.7332,0.7331,0.7332,0.7325,0.7322,0.7312,0.7305,0.73,0.7286,0.7286,0.7272,0.7272,0.7265,0.7262,0.7256,0.7257,0.7255,0.7239,0.7261,0.7297,0.73,0.7255,0.7254,0.7254,0,0.7373,0.7367,0.7369,0.7365,0.735,0.7351,0.7345,0.7334,0.7331,0.7325,0.7323,0.7316,0.7312,0.7307,0.7292,0.7284,0.7294,0.7279,0.7288,0.7288,0.729,0.729,0.7325,0.7289,0.7289,0.7289,0.7289,0,0.7397,0.7401,0.7382,0.7383,0.7387,0.7371,0.7375,0.7367,0.7358,0.7357,0.734,0.734,0.7321,0.7318,0.7306,0.7308,0.7306,0.73,0.7297,0.7301,0.7302,0.7299,0.7297,0.729,0.729,0.729,0.7289,0,0.7429,0.7416,0.7417,0.7403,0.7399,0.7403,0.739,0.7391,0.7381,0.738,0.7379,0.7363,0.7359,0.7344,0.7336,0.7328,0.7334,0.7328,0.7337,0.7335,0.7344,0.7344,0.7378,0.7382,0.7344,0.7345,0.7345,0,0.7445,0.7447,0.7434,0.7432,0.7427,0.7425,0.7422,0.7406,0.7404,0.7393,0.7395,0.739,0.7385,0.738,0.7367,0.7362,0.7355,0.7368,0.7354,0.7358,0.7355,0.7354,0.7354,0.737,0.7371,0.7371,0.7371,0,0.7475,0.7468,0.7465,0.746,0.7457,0.7452,0.7445,0.7445,0.7428,0.7426,0.7422,0.7418,0.7411,0.7406,0.7399,0.7391,0.7378,0.7376,0.7378,0.7382,0.7387,0.7384,0.7345,0.7375,0.7375,0.7375,0.7374,0.7374,0.7498,0.75,0.7491,0.7488,0.7482,0.7477,0.7477,0.7467,0.7464,0.7457,0.7448,0.7446,0.7436,0.7425,0.7418,0.7416,0.7409,0.7411,0.7412,0.7413,0.7415,0.7388,0.7415,0.7414,0.7414,0.7414,0.7414,0,0.7527,0.7521,0.7518,0.751,0.7508,0.7497,0.749,0.7489,0.7487,0.7479,0.7475,0.7471,0.7467,0.7454,0.7449,0.7449,0.7443,0.7448,0.7447,0.7446,0.7422,0.7421,0.7453,0.7453,0.7453,0.7453,0.7453,0.7453,0.7542,0.7544,0.7537,0.7536,0.7529,0.7527,0.7524,0.7519,0.7513,0.751,0.7506,0.7499,0.7489,0.7483,0.7478,0.7474,0.7473,0.748,0.7474,0.7451,0.7448,0.7444,0.7443,0.748,0.748,0.7498,0.7499,0.7499]},{"header":{"parameterUnit":"m.s-1","parameterCategory":1,"la1":30.2991,"la2":30.254,"lo1":-89.0895,"lo2":-89.0444,"dy":0.0017,"dx":0.0017,"nx":28,"ny":28,"refTime":"2024-02-05T03:00:00:Z","depth":0,"parameterNumber":3,"parameterNumberName":"V-component_of_WINDS"},"data":[0,0,0,0,0,0,0,0,0,0,0,0,0,0,0,0,0,0,0,0,0,0,0,0,0,0,0,0,0,0,0,0,0,0,0,0,0,0,0,0,0,0,0,0,0,0,0,0,0,0,0,0,0,0,0,0,0,0,-5.6253,-5.6255,0,-5.645,-5.6452,-5.6454,-5.645,-5.6447,-5.6445,-5.6442,-5.6643,-5.6651,-5.6659,0,0,0,0,0,0,0,0,0,0,0,0,0,-5.5873,-5.588,-5.6253,-5.6255,-5.6258,-5.645,-5.6452,-5.6455,-5.645,-5.6447,-5.6444,-5.6441,-5.6641,-5.665,-5.666,0,0,0,0,0,0,0,0,0,0,0,0,0,-5.6051,-5.5882,-5.6252,-5.6278,-5.6283,-5.6449,-5.6452,-5.6456,-5.6451,-5.6447,-5.6443,-5.6439,-5.6638,-5.6649,-5.6661,-5.6814,0,0,-5.6697,-5.6702,0,0,0,0,0,0,0,0,-5.6041,-5.6065,-5.6272,-5.6277,-5.6282,-5.6421,-5.6392,-5.6576,-5.6452,-5.6387,-5.6442,-5.6437,-5.6573,-5.659,-5.6635,-5.6823,-5.6832,-5.6698,-5.6705,-5.671,-5.6713,0,0,0,0,0,0,0,-5.6028,-5.6056,-5.6331,-5.6275,-5.6281,-5.6281,-5.6301,-5.6427,-5.65,-5.6392,-5.6393,-5.6416,-5.6575,-5.6624,-5.664,-5.6835,-5.6698,-5.6708,-5.6715,-5.672,-5.7161,-5.7166,0,0,0,0,0,0,-5.601,-5.6046,-5.6324,-5.6337,-5.6149,-5.6291,-5.6314,-5.6381,-5.6499,-5.6513,-5.6419,-5.6415,-5.6606,-5.6626,-5.6647,-5.6837,-5.671,-5.6721,-5.6728,-5.7157,-5.7162,-5.7167,0,0,0,0,0,0,-5.6002,-5.6035,-5.6317,-5.6191,-5.6227,-5.6301,-5.6376,-5.6387,-5.6436,-5.6519,-5.6532,-5.6456,-5.6603,-5.6631,-5.6773,-5.6843,-5.6726,-5.6737,-5.7151,-5.7158,-5.7165,-5.7215,0,0,0,0,0,0,-5.5991,-5.6032,-5.6091,-5.6193,-5.6234,-5.6439,-5.6381,-5.6393,-5.6456,-5.6453,-5.6557,-5.6571,-5.6602,-5.6756,-5.6785,-5.6857,-5.6746,-5.7145,-5.7154,-5.7163,-5.7208,-5.7223,-5.7236,0,0,0,0,0,-5.5978,-5.6097,-5.6094,-5.6128,-5.6309,-5.6443,-5.6467,-5.6501,-5.6462,-5.6522,-5.6576,-5.6567,-5.683,-5.677,-5.6803,-5.688,-5.7141,-5.7152,-5.7162,-5.7201,-5.722,-5.7236,0,0,0,0,0,0,-5.6001,-5.611,-5.6109,-5.6264,-5.6345,-5.6442,-5.6519,-5.652,-5.6613,-5.6605,-5.6644,-5.6667,-5.6811,-5.6859,-5.679,-5.7036,-5.6981,-5.6998,-5.6999,-5.7018,-5.7032,-5.7018,-5.6756,0,0,0,0,0,-5.6024,-5.6124,-5.6214,-5.6343,-5.6383,-5.6444,-5.6504,-5.6524,-5.6608,-5.6642,-5.6706,-5.6789,-5.689,-5.6956,-5.7054,-5.7214,-5.7238,-5.7283,-5.7297,-5.7309,-5.7324,-5.7415,-5.7437,-5.7202,-5.7202,-5.7201,0,0,-5.6073,-5.6145,-5.6206,-5.6349,-5.6414,-5.6517,-5.6473,-5.6583,-5.6661,-5.6659,-5.6799,-5.6848,-5.6943,-5.7096,-5.7166,-5.7141,-5.7394,-5.7322,-5.733,-5.734,-5.7428,-5.745,-5.747,-5.7209,-5.7208,-5.7206,0,0,-5.6216,-5.6279,-5.6395,-5.6461,-5.6559,-5.6599,-5.6627,-5.6725,-5.6759,-5.6899,-5.6901,-5.6993,-5.7166,-5.7235,-5.7292,-5.7462,-5.7459,-5.7492,-5.7568,-5.7656,-5.7674,-5.7691,-5.7754,-5.7776,-5.7507,-5.7507,-5.7507,0,-5.6264,-5.642,-5.6454,-5.6566,-5.663,-5.6633,-5.6751,-5.6813,-5.6939,-5.6983,-5.6952,-5.7172,-5.7236,-5.7405,-5.7447,-5.7492,-5.7527,-5.7482,-5.7669,-5.7686,-5.7702,-5.7762,-5.7786,-5.7511,-5.751,-5.751,-5.751,0,-5.6476,-5.6584,-5.6665,-5.6788,-5.686,-5.6974,-5.7026,-5.7096,-5.7109,-5.7152,-5.7297,-5.7373,-5.7488,-5.7529,-5.7542,-5.7702,-5.7683,-5.766,-5.7606,-5.7727,-5.7785,-5.7808,-5.7516,-5.7515,-5.7514,-5.7513,0,0,-5.664,-5.678,-5.6809,-5.6866,-5.6975,-5.706,-5.7174,-5.7287,-5.7347,-5.7433,-5.7532,-5.7679,-5.7659,-5.7725,-5.7746,-5.7822,-5.7955,-5.7791,-5.7794,-5.7821,-5.8138,-5.8156,-5.8183,-5.7953,-5.7957,-5.7961,-5.8131,0,-5.6796,-5.7,-5.7035,-5.7214,-5.7316,-5.7321,-5.7421,-5.7499,-5.7543,-5.7636,-5.7683,-5.7789,-5.7753,-5.7793,-5.7869,-5.7923,-5.802,-5.7911,-5.8046,-5.8051,-5.8025,-5.8212,-5.8232,-5.8389,-5.8153,-5.8157,-5.816,0,-5.7005,-5.7099,-5.7289,-5.7387,-5.743,-5.752,-5.7627,-5.7715,-5.7804,-5.7831,-5.7904,-5.7917,-5.8037,-5.7976,-5.8143,-5.8069,-5.8126,-5.8161,-5.8168,-5.8184,-5.8114,-5.8236,-5.8439,-5.8464,-5.8195,-5.8193,-5.819,0,-5.7109,-5.7282,-5.7418,-5.7466,-5.7583,-5.7646,-5.7698,-5.7783,-5.7849,-5.7942,-5.7986,-5.8091,-5.815,-5.8232,-5.8273,-5.8224,-5.8438,-5.838,-5.8465,-5.8464,-5.8512,-5.8509,-5.873,-5.8544,-5.8544,-5.8544,-5.8543,0,-5.7281,-5.7398,-5.7467,-5.7551,-5.7682,-5.772,-5.7849,-5.7899,-5.7976,-5.807,-5.808,-5.8169,-5.8217,-5.8313,-5.8345,-5.848,-5.8506,-5.8531,-5.8539,-5.8532,-5.8529,-5.8572,-5.8563,-5.855,-5.8548,-5.8547,-5.8546,0,-5.742,-5.7471,-5.762,-5.7719,-5.7746,-5.7839,-5.7924,-5.8006,-5.8049,-5.8169,-5.8199,-5.8268,-5.8381,-5.843,-5.8569,-5.8591,-5.8747,-5.8745,-5.8717,-5.872,-5.8804,-5.8796,-5.9062,-5.91,-5.8887,-5.8889,-5.889,0,-5.7528,-5.7618,-5.7727,-5.7791,-5.7845,-5.7948,-5.8016,-5.8057,-5.8127,-5.8237,-5.8307,-5.842,-5.8514,-5.8695,-5.8758,-5.8865,-5.8867,-5.8953,-5.8884,-5.8874,-5.8872,-5.8867,-5.8878,-5.8967,-5.8969,-5.897,-5.8972,0,-5.7715,-5.7736,-5.7834,-5.7941,-5.8022,-5.8108,-5.8192,-5.8244,-5.8298,-5.8377,-5.8494,-5.8567,-5.871,-5.8823,-5.8935,-5.8988,-5.899,-5.8993,-5.9019,-5.9014,-5.8995,-5.9009,-5.8755,-5.8987,-5.8986,-5.8985,-5.8984,-5.8983,-5.7844,-5.7925,-5.8015,-5.8124,-5.8192,-5.8271,-5.8354,-5.8408,-5.8506,-5.8626,-5.8644,-5.8769,-5.8858,-5.9007,-5.9065,-5.9164,-5.9143,-5.9179,-5.9189,-5.9198,-5.9205,-5.8977,-5.9184,-5.9183,-5.9183,-5.9183,-5.9183,0,-5.8034,-5.8092,-5.8192,-5.831,-5.8396,-5.839,-5.8483,-5.8556,-5.8666,-5.8748,-5.8841,-5.8976,-5.9086,-5.9157,-5.9269,-5.9335,-5.9339,-5.9363,-5.936,-5.9373,-5.9216,-5.9184,-5.9358,-5.9358,-5.9358,-5.9358,-5.9358,-5.9358,-5.8143,-5.8281,-5.8313,-5.8485,-5.8542,-5.8666,-5.872,-5.8793,-5.8859,-5.901,-5.9102,-5.9148,-5.9226,-5.9344,-5.9446,-5.9464,-5.9505,-5.9532,-5.9549,-5.9402,-5.9384,-5.9366,-5.9336,-5.954,-5.954,-5.9697,-5.9699,-5.97]}]]